Copper Mountain, CO

11:08 PM MDT on July 20, 2017 (GMT -0600)
Copper Mountain

Weather History for KCCU - May, 2013

Change the Weather History Date:

Tuesday, May 14, 2013

  Actual Average Record
Temperature  
Mean Temperature 47 °F -  
Max Temperature 53 °F - 53 °F (2012)
Min Temperature 41 °F - 17 °F (2014)
Degree Days  
Heating Degree Days 18    
Month to date heating degree days  
Cooling Degree Days 0    
Month to date cooling degree days  
Moisture  
Dew Point 28 °F    
Average Humidity 51    
Maximum Humidity 76    
Minimum Humidity 26    
Precipitation  
Precipitation 0.02 in - 0.02 in (2013)
Sea Level Pressure  
Sea Level Pressure 30.50 in    
Wind  
Wind Speed 10 mph (SW)    
Max Wind Speed 30 mph    
Max Gust Speed 29 mph    
Visibility 10 miles    
Events Rain , Thunderstorm    
T = Trace of Precipitation, MM = Missing Value Source: NWS Daily Summary

Daily Weather History Graph

Daily Weather History Graph

Search for Another Location

Airport or City:

Trip Planner

Search our weather history database for the weather conditions in past years. The results will help you decide how hot, cold, wet, or windy it might be!

Date:

Astronomy

May. 14, 2013 Rise Set
Actual Time 5:51 AM MDT 8:11 PM MDT
Civil Twilight 5:21 AM MDT 8:41 PM MDT
Nautical Twilight 4:43 AM MDT 9:18 PM MDT
Astronomical Twilight 4:02 AM MDT 10:00 PM MDT
Moon 9:33 AM MDT (5/14) No Moon Set
Length of Visible Light 15h 20m
Length of Day
14h 19m
Waxing Crescent, 19% of the Moon is Illuminated
May 14
Waxing Crescent
May 17
First Quarter
May 24
Full
May 31
Last Quarter
Jun 8
New

Hourly Weather History & Observations

Time (MDT) Temp. Windchill Dew Point Humidity Pressure Visibility Wind Dir Wind Speed Gust Speed Precip Events Conditions
12:12 AM 46.4 °F 41.9 °F 26.6 °F 46% 30.57 in 10.0 mi SW 9.2 mph 16.1 mph N/A   Clear
12:32 AM 46.4 °F 42.4 °F 26.6 °F 46% 30.57 in 10.0 mi SSW 8.1 mph - N/A   Clear
12:52 AM 44.6 °F 39.2 °F 26.6 °F 49% 30.56 in 10.0 mi SW 10.4 mph 16.1 mph N/A   Clear
1:12 AM 44.6 °F 39.2 °F 26.6 °F 49% 30.56 in 10.0 mi SW 10.4 mph - N/A   Clear
1:32 AM 44.6 °F 39.7 °F 26.6 °F 49% 30.55 in 10.0 mi SSW 9.2 mph 17.3 mph N/A   Clear
1:52 AM 44.6 °F 39.2 °F 26.6 °F 49% 30.55 in 10.0 mi SSW 10.4 mph 17.3 mph N/A   Clear
2:12 AM 44.6 °F 39.2 °F 26.6 °F 49% 30.54 in 10.0 mi SW 10.4 mph - N/A   Clear
2:32 AM 44.6 °F 39.2 °F 26.6 °F 49% 30.53 in 10.0 mi WSW 10.4 mph - N/A   Clear
2:52 AM 44.6 °F 39.2 °F 26.6 °F 49% 30.53 in 10.0 mi SW 10.4 mph - N/A   Clear
3:12 AM 44.6 °F 40.2 °F 26.6 °F 49% 30.53 in 10.0 mi WSW 8.1 mph - N/A   Clear
3:32 AM 44.6 °F 39.7 °F 24.8 °F 46% 30.53 in 10.0 mi WSW 9.2 mph 16.1 mph N/A   Clear
3:52 AM 44.6 °F 40.2 °F 24.8 °F 46% 30.53 in 10.0 mi SW 8.1 mph - N/A   Clear
4:12 AM 44.6 °F 40.2 °F 23.0 °F 43% 30.52 in 10.0 mi WSW 8.1 mph - N/A   Clear
4:32 AM 44.6 °F 40.7 °F 23.0 °F 43% 30.52 in 10.0 mi SW 6.9 mph - N/A   Clear
4:52 AM 44.6 °F 40.7 °F 23.0 °F 43% 30.52 in 10.0 mi WSW 6.9 mph - N/A   Clear
5:12 AM 44.6 °F 41.4 °F 23.0 °F 43% 30.52 in 10.0 mi WSW 5.8 mph - N/A   Clear
5:32 AM 44.6 °F 40.7 °F 24.8 °F 46% 30.52 in 10.0 mi WSW 6.9 mph - N/A   Clear
5:52 AM 44.6 °F 37.8 °F 24.8 °F 46% 30.52 in 10.0 mi West 15.0 mph - N/A   Clear
6:12 AM 42.8 °F 35.4 °F 24.8 °F 49% 30.52 in 10.0 mi West 15.0 mph - N/A   Clear
6:32 AM 44.6 °F 40.2 °F 23.0 °F 43% 30.53 in 10.0 mi West 8.1 mph - N/A   Clear
6:52 AM 44.6 °F 37.8 °F 23.0 °F 43% 30.53 in 10.0 mi West 15.0 mph 19.6 mph N/A   Clear
7:12 AM 46.4 °F 41.1 °F 23.0 °F 40% 30.53 in 10.0 mi West 11.5 mph - N/A   Clear
7:32 AM 46.4 °F 41.5 °F 23.0 °F 40% 30.54 in 10.0 mi West 10.4 mph - N/A   Clear
7:52 AM 46.4 °F 42.9 °F 23.0 °F 40% 30.54 in 10.0 mi West 6.9 mph - N/A   Clear
8:12 AM 46.4 °F 41.9 °F 23.0 °F 40% 30.54 in 10.0 mi West 9.2 mph - N/A   Clear
8:32 AM 46.4 °F 41.9 °F 21.2 °F 37% 30.54 in 10.0 mi West 9.2 mph - N/A   Clear
8:52 AM 50.0 °F - 21.2 °F 32% 30.54 in 10.0 mi West 10.4 mph - N/A   Clear
9:12 AM 50.0 °F - 23.0 °F 35% 30.54 in 10.0 mi West 12.7 mph 17.3 mph N/A   Clear
9:32 AM 51.8 °F - 24.8 °F 35% 30.54 in 10.0 mi West 8.1 mph - N/A   Scattered Clouds
9:52 AM 51.8 °F - 23.0 °F 33% 30.54 in 10.0 mi West 11.5 mph 17.3 mph N/A   Scattered Clouds
10:12 AM 53.6 °F - 26.6 °F 35% 30.53 in 10.0 mi West 10.4 mph - N/A   Clear
10:32 AM 53.6 °F - 24.8 °F 33% 30.53 in 10.0 mi West 11.5 mph 18.4 mph N/A   Clear
10:52 AM 53.6 °F - 26.6 °F 35% 30.52 in 10.0 mi West 13.8 mph 18.4 mph N/A   Clear
10:58 AM 53.6 °F - 23.0 °F 30% 30.52 in 10.0 mi West 13.8 mph 20.7 mph N/A   Clear
2:12 PM 53.6 °F - 19.4 °F 26% 30.46 in 10.0 mi West 9.2 mph 17.3 mph N/A   Mostly Cloudy
2:32 PM 53.6 °F - 28.4 °F 38% 30.46 in 10.0 mi East 12.7 mph 21.9 mph N/A   Overcast
2:52 PM 51.8 °F - 28.4 °F 41% 30.46 in 10.0 mi ESE 9.2 mph - N/A   Overcast
3:12 PM 51.8 °F - 28.4 °F 41% 30.46 in 10.0 mi ESE 9.2 mph - N/A Thunderstorm Thunderstorm
3:32 PM 51.8 °F - 28.4 °F 41% 30.45 in 10.0 mi SE 11.5 mph 18.4 mph N/A   Overcast
3:52 PM 46.4 °F 38.1 °F 30.2 °F 53% 30.46 in 10.0 mi South 24.2 mph 28.8 mph N/A Rain Light Rain
4:12 PM 44.6 °F 34.7 °F 32.0 °F 61% 30.47 in 10.0 mi South 29.9 mph - N/A   Drizzle
4:32 PM 44.6 °F 35.9 °F 32.0 °F 61% 30.46 in 10.0 mi South 23.0 mph - 0.01 in Rain Light Rain
4:52 PM 44.6 °F 36.1 °F 32.0 °F 61% 30.45 in 10.0 mi SSE 21.9 mph - 0.01 in   Overcast
5:12 PM 44.6 °F 35.9 °F 32.0 °F 61% 30.44 in 10.0 mi SSE 23.0 mph - N/A   Scattered Clouds
5:32 PM 44.6 °F 41.4 °F 30.2 °F 57% 30.46 in 10.0 mi SSE 5.8 mph - N/A   Scattered Clouds
5:52 PM 44.6 °F 42.2 °F 32.0 °F 61% 30.46 in 10.0 mi East 4.6 mph - N/A   Overcast
6:12 PM 44.6 °F 40.2 °F 32.0 °F 61% 30.46 in 10.0 mi East 8.1 mph - N/A   Mostly Cloudy
6:32 PM 44.6 °F 41.4 °F 32.0 °F 61% 30.46 in 10.0 mi SE 5.8 mph - N/A   Scattered Clouds
6:52 PM 42.8 °F 37.0 °F 32.0 °F 66% 30.46 in 10.0 mi SSE 10.4 mph - N/A   Mostly Cloudy
7:12 PM 41.0 °F 33.5 °F 32.0 °F 70% 30.46 in 10.0 mi SSE 13.8 mph - N/A   Overcast
7:32 PM 41.0 °F 33.1 °F 32.0 °F 70% 30.46 in 10.0 mi SSE 15.0 mph - N/A Rain Rain
7:52 PM 41.0 °F 37.1 °F 33.8 °F 76% 30.47 in 10.0 mi SSW 5.8 mph 13.8 mph N/A Rain Rain
8:12 PM 41.0 °F 32.8 °F 33.8 °F 76% 30.46 in 10.0 mi South 16.1 mph - N/A Rain Light Rain
8:32 PM 42.8 °F 41.1 °F 32.0 °F 66% 30.47 in 10.0 mi WSW 3.5 mph 17.3 mph N/A   Light Drizzle
8:52 PM 41.0 °F 36.4 °F 32.0 °F 70% 30.47 in 7.0 mi West 6.9 mph - N/A Rain Rain
9:12 PM 41.0 °F 38.0 °F 32.0 °F 70% 30.47 in 10.0 mi West 4.6 mph - 0.01 in   Overcast
9:32 PM 41.0 °F 33.1 °F 32.0 °F 70% 30.47 in 10.0 mi West 15.0 mph - 0.01 in   Overcast
9:52 PM 41.0 °F 34.3 °F 33.8 °F 76% 30.48 in 10.0 mi West 11.5 mph 18.4 mph 0.01 in   Overcast
10:12 PM 41.0 °F 35.2 °F 33.8 °F 76% 30.48 in 10.0 mi West 9.2 mph - N/A   Overcast
10:32 PM 44.6 °F - 32.0 °F 61% 30.47 in 10.0 mi Calm Calm - N/A   Overcast
10:52 PM 42.8 °F 40.1 °F 32.0 °F 66% 30.47 in 10.0 mi West 4.6 mph - N/A   Overcast
11:12 PM 42.8 °F 37.5 °F 32.0 °F 66% 30.46 in 10.0 mi West 9.2 mph - N/A   Overcast
11:32 PM 44.6 °F 43.1 °F 32.0 °F 61% 30.46 in 10.0 mi North 3.5 mph - N/A   Overcast
11:52 PM 44.6 °F 41.4 °F 30.2 °F 57% 30.46 in 10.0 mi West 5.8 mph - N/A   Overcast